This is the latest recevied weather packets stored in our database for station/object DM4SB-13. If no packets are shown the sender has not sent any weather packets the latest 10 day(s).
| Time | Temp. | Humidity | Pressure | Rain* | Wind** | Luminosity | Snow |
|---|---|---|---|---|---|---|---|
| 1777990818 | 17.78° C | 65% | 1008 hPa | - | - | - | - |
| 1777989618 | 17.78° C | 64% | 1008.6 hPa | - | - | - | - |
| 1777989017 | 17.78° C | 63% | 1008.6 hPa | - | - | - | - |
| 1777988418 | 17.78° C | 62% | 1008.5 hPa | - | - | - | - |
| 1777987817 | 18.33° C | 61% | 1008.5 hPa | - | - | - | - |
| 1777987218 | 18.33° C | 60% | 1008.4 hPa | - | - | - | - |
| 1777986617 | 18.33° C | 57% | 1008 hPa | - | - | - | - |
| 1777986018 | 18.89° C | 56% | 1007.7 hPa | - | - | - | - |
| 1777985418 | 18.89° C | 56% | 1007.5 hPa | - | - | - | - |
| 1777984818 | 18.89° C | 54% | 1007.5 hPa | - | - | - | - |
| 1777984217 | 18.89° C | 53% | 1007.5 hPa | - | - | - | - |
| 1777983617 | 18.33° C | 53% | 1007.4 hPa | - | - | - | - |
| 1777983018 | 18.33° C | 54% | 1007.2 hPa | - | - | - | - |
| 1777982417 | 18.33° C | 54% | 1007 hPa | - | - | - | - |
| 1777981817 | 18.33° C | 55% | 1007.1 hPa | - | - | - | - |
| 1777981218 | 18.33° C | 57% | 1007 hPa | - | - | - | - |
| 1777980618 | 18.33° C | 57% | 1006.9 hPa | - | - | - | - |
| 1777980017 | 18.33° C | 59% | 1007 hPa | - | - | - | - |
| 1777979418 | 18.33° C | 59% | 1006.9 hPa | - | - | - | - |
| 1777978818 | 18.33° C | 61% | 1007.1 hPa | - | - | - | - |
| 1777978218 | 18.33° C | 61% | 1007.1 hPa | - | - | - | - |
| 1777977617 | 17.78° C | 61% | 1007.4 hPa | - | - | - | - |
| 1777977017 | 17.78° C | 61% | 1007.5 hPa | - | - | - | - |
| 1777976418 | 17.78° C | 62% | 1007.5 hPa | - | - | - | - |
| 1777975818 | 17.78° C | 61% | 1007.6 hPa | - | - | - | - |
* Rain since midnight (hover to see other rain measurements)
** Current wind speed in m/s (hover to see current wind gust speed)